Vorticity
nan nan nan nan nan nan nan nan nan nan nan nan nan nan nan nan nan nan nan nan nan nan nan nan nan nan nan nan nan nan nan nan nan nan nan nan nan nan nan nan nan nan nan nan nan nan nan nan nan nan nan nan nan nan nan nan nan nan nan nan nan nan nan nan nan nan nan nan nan nan nan nan nan nan nan nan nan nan nan nan nan nan nan nan nan nan
nan 9 9 10 11 11 9 10 11 10 8 7 7 6 4 5 9 12 15 14 13 13 12 11 10 10 9 11 10 9 9 8 8 8 8 9 9 9 9 10 10 10 10 10 10 10 10 11 11 11 11 11 11 11 11 11 11 12 12 12 12 12 12 12 12 13 13 13 13 13 13 13 14 14 14 14 14 14 14 13 13 12 12 12 12 nan
nan 10 10 13 13 12 8 10 12 12 10 9 7 4 2 8 12 12 11 12 13 13 11 9 9 10 13 13 13 12 9 9 8 8 8 8 9 9 9 9 9 9 10 10 10 10 11 11 11 11 11 11 11 11 11 11 11 12 12 12 12 12 11 11 11 11 12 12 12 12 12 12 12 13 13 13 14 14 14 14 13 12 12 14 13 nan
nan 9 9 11 12 11 7 9 11 13 14 11 9 8 11 15 15 12 9 8 9 11 11 9 9 11 15 15 14 12 9 8 8 8 8 8 8 9 9 9 9 9 10 10 10 10 11 11 11 11 11 11 11 11 11 11 11 11 11 11 11 11 10 10 10 9 9 9 10 10 10 10 10 10 10 10 11 11 12 12 12 12 12 12 12 nan
nan 8 9 10 10 11 10 11 12 13 12 12 12 14 17 16 13 11 9 9 9 11 12 12 12 12 11 11 9 8 8 8 8 8 9 9 9 9 9 9 10 9 10 10 10 11 11 11 11 11 11 11 11 11 11 11 11 11 11 11 11 11 10 10 9 8 8 8 8 8 8 8 8 8 7 7 7 8 8 8 9 9 10 10 10 nan
nan 9 9 9 9 10 12 13 12 12 12 13 14 14 15 13 11 10 9 10 11 12 11 11 11 11 9 7 6 8 11 11 12 12 12 11 11 11 11 11 11 11 11 11 11 11 11 11 11 11 11 11 11 11 11 10 11 11 11 12 12 12 11 11 10 9 9 9 9 9 9 9 9 9 8 7 7 7 6 7 7 8 8 9 9 nan
nan 8 9 8 9 9 10 11 10 10 10 11 12 13 12 12 11 9 8 8 9 10 10 10 11 11 11 9 10 13 17 18 19 19 18 17 16 15 15 14 13 12 11 11 11 11 11 11 11 11 11 11 10 10 10 10 10 10 11 12 12 12 12 12 12 11 11 11 11 11 12 12 11 11 11 10 9 9 8 8 8 8 8 9 9 nan
nan 7 7 7 8 9 9 9 9 8 8 8 9 9 10 10 10 10 10 10 10 10 10 11 11 12 12 12 14 17 18 19 21 21 21 21 21 19 17 15 14 12 12 12 11 11 11 11 10 10 10 10 10 10 10 10 10 10 11 12 12 13 13 13 13 13 12 12 12 13 13 13 13 13 13 13 12 12 11 11 11 11 10 11 11 nan
nan 7 8 8 8 8 9 10 9 8 7 8 7 7 8 8 8 10 11 12 12 12 11 10 10 10 10 12 13 14 14 13 11 10 11 13 12 11 11 12 14 14 12 11 11 10 10 10 10 10 10 10 10 10 10 10 10 11 11 12 12 13 13 13 14 13 13 13 13 13 13 13 13 14 14 14 14 14 13 13 13 12 12 12 12 nan
nan 9 10 11 11 10 10 9 10 11 10 8 8 7 8 8 9 9 10 11 11 12 11 9 9 9 10 11 12 12 13 12 9 7 6 4 2 3 7 10 12 12 11 11 11 11 11 10 10 10 11 11 11 11 11 11 11 12 12 12 12 12 13 13 13 13 13 13 13 13 12 12 12 13 13 13 13 13 13 13 13 13 13 13 13 nan
nan 13 13 13 13 13 11 10 11 12 13 13 12 11 9 9 9 9 9 10 10 9 9 9 9 9 9 10 11 12 13 13 15 15 15 13 13 14 16 16 15 14 15 15 15 15 14 13 12 13 13 13 13 13 12 13 12 12 12 12 12 12 12 12 12 12 12 12 12 12 12 12 12 12 12 12 12 13 13 12 12 12 12 12 12 nan
nan 15 14 13 12 13 13 12 12 12 14 13 12 11 10 10 10 9 11 10 9 8 8 9 9 9 8 9 10 11 12 12 13 15 18 20 22 24 24 22 21 21 23 23 23 22 19 17 16 15 15 14 14 13 12 12 11 11 11 11 11 11 10 10 10 10 10 11 11 11 11 12 12 12 12 12 12 12 12 12 11 11 11 11 11 nan
nan 13 13 12 11 11 11 10 10 10 10 9 8 8 9 11 11 11 12 11 9 8 8 8 8 9 10 10 10 10 11 11 11 12 13 15 17 18 18 17 18 19 21 21 22 21 20 20 20 19 16 15 14 13 13 12 10 10 9 9 9 9 9 9 9 9 9 9 9 10 10 11 11 11 11 11 11 11 11 11 11 10 10 10 10 nan
nan 11 9 9 8 8 7 6 6 6 7 8 8 8 8 9 11 12 12 11 10 8 8 8 8 10 12 13 12 11 11 12 12 11 11 11 12 11 11 10 11 11 12 13 13 13 15 18 20 20 19 16 14 14 13 11 10 9 9 8 8 8 8 8 8 8 8 8 9 9 10 10 10 10 10 10 10 10 10 10 9 9 9 9 9 nan
nan 6 4 5 5 5 5 6 7 7 8 8 8 8 10 11 12 13 11 9 9 10 11 11 11 12 12 13 14 14 14 13 11 11 10 10 10 10 9 9 9 9 8 9 9 9 12 14 15 15 17 14 12 10 8 8 8 8 8 8 8 8 8 8 8 8 8 8 9 9 10 10 10 10 10 10 9 9 9 9 9 9 9 9 9 nan
nan 6 5 6 7 7 7 9 9 10 9 9 10 11 12 12 11 9 7 8 10 13 13 13 13 14 15 13 14 16 17 14 12 10 9 9 9 10 10 10 9 8 8 8 9 10 12 12 12 11 12 10 8 7 7 7 8 8 8 8 8 9 9 9 9 9 8 9 9 9 10 10 10 10 10 10 10 10 10 10 10 10 9 9 9 nan
nan 9 10 10 10 9 10 10 10 10 10 11 11 12 10 8 7 7 8 10 12 12 11 10 11 13 13 12 14 16 14 11 10 8 8 8 9 10 11 11 9 8 8 8 9 10 11 11 11 11 10 7 7 8 9 8 8 8 8 8 9 9 9 9 9 9 9 9 9 9 10 10 10 10 10 10 10 11 11 11 11 11 11 11 11 nan
nan 9 10 10 10 10 10 11 12 12 12 12 12 11 9 7 6 7 9 11 10 9 8 9 9 9 7 8 9 9 7 8 7 7 8 8 8 10 11 11 9 8 8 9 9 10 10 10 9 6 3 3 6 8 9 9 8 9 9 9 9 9 10 10 10 10 9 9 10 10 10 11 11 11 11 11 11 11 11 12 12 12 11 11 12 nan
nan 10 10 10 11 11 11 11 11 11 11 10 10 10 9 9 8 9 10 11 10 9 9 9 8 6 6 4 3 4 7 9 9 9 9 8 8 8 9 10 9 9 9 9 10 11 11 11 9 6 3 7 8 9 9 9 9 9 9 9 9 10 10 10 11 11 11 11 11 11 12 12 11 11 11 11 11 11 11 12 12 12 11 11 11 nan
nan 12 12 11 12 12 11 9 7 4 3 4 6 7 8 9 10 11 11 9 9 9 9 8 8 8 9 7 7 8 10 11 11 11 11 10 9 9 10 10 10 10 10 10 11 11 11 11 12 13 13 12 11 10 10 10 10 9 10 10 10 11 11 11 12 12 12 12 12 12 12 12 11 11 11 11 11 11 11 11 11 11 11 11 11 nan
nan 10 8 5 6 8 8 6 4 1 2 5 8 10 11 11 10 10 8 8 8 7 7 9 10 11 11 11 11 11 10 10 11 12 13 12 10 9 11 12 11 11 10 11 11 11 11 11 12 14 14 11 10 10 10 10 10 10 10 10 11 11 12 12 12 12 12 12 12 12 12 11 11 11 11 11 11 11 11 11 11 11 11 11 11 nan
nan 6 3 4 5 5 5 5 6 7 8 10 11 11 12 11 10 8 8 9 9 9 10 10 11 11 11 12 12 10 10 11 11 11 10 9 8 9 11 11 11 11 11 11 11 11 11 11 11 10 9 9 9 9 9 10 10 10 10 10 11 12 12 12 12 12 12 12 12 12 11 11 11 11 11 11 11 11 11 11 11 11 11 11 11 nan
nan 6 7 10 10 9 8 9 11 13 15 14 12 10 9 9 9 9 11 11 10 11 12 12 12 12 13 12 11 10 10 10 10 8 7 7 8 11 11 11 10 10 10 9 10 10 11 12 11 11 13 12 11 10 10 10 9 10 11 11 12 12 12 12 12 12 12 12 12 12 11 11 11 11 11 11 12 12 12 11 11 12 12 12 12 nan
nan 10 11 12 10 8 7 9 10 11 13 13 12 11 9 7 7 7 9 10 10 11 12 11 11 12 13 12 11 11 12 11 10 9 8 10 11 10 9 9 9 9 9 9 9 11 12 12 12 12 15 16 14 12 11 10 10 11 12 12 13 13 13 12 12 12 12 12 12 12 11 11 12 12 12 12 12 12 11 11 11 11 12 12 13 nan
nan 3 2 0 -2 -6 -9 -8 -7 -6 -5 1 7 10 11 8 7 7 7 10 11 11 10 9 9 10 11 11 12 12 14 14 13 12 10 12 12 10 8 9 10 10 10 10 11 12 12 12 11 12 13 16 15 14 12 12 12 12 12 13 13 13 13 13 13 13 12 12 12 12 12 12 12 12 12 11 11 11 10 10 10 11 11 12 13 nan
nan -14 -16 -16 -15 -15 -16 -16 -16 -16 -14 -8 -2 2 5 8 9 10 11 13 12 11 9 9 10 10 10 11 11 12 14 16 16 13 9 8 9 10 10 11 11 10 9 10 11 11 10 10 11 11 11 13 16 16 14 13 13 13 13 13 13 13 13 13 13 13 13 12 13 12 12 12 12 12 11 10 10 10 10 10 10 10 11 14 16 nan
nan -7 -7 -5 -4 -2 -1 -2 -1 0 4 2 -2 -4 2 9 13 16 16 15 13 11 9 9 10 11 11 10 10 10 10 13 13 12 8 7 8 10 10 10 10 10 11 12 11 10 10 10 11 11 10 11 14 16 16 15 14 14 14 14 14 14 14 14 13 13 13 13 13 13 12 12 11 10 10 9 9 10 10 10 10 12 14 18 22 nan
nan 15 17 17 16 14 13 14 15 17 18 12 7 7 14 18 18 19 18 15 13 11 9 9 10 11 11 9 9 9 9 10 10 9 9 9 10 10 10 10 11 12 14 14 13 13 14 14 13 12 11 11 12 14 17 17 18 18 18 17 16 15 15 14 14 14 13 13 13 12 12 11 10 9 9 9 10 10 11 11 12 15 19 22 22 nan
nan 30 31 29 27 24 23 23 24 22 19 16 16 18 21 20 17 15 13 11 10 9 9 10 10 10 9 9 10 10 12 13 14 15 14 11 11 11 12 12 13 14 15 15 16 17 18 17 16 15 14 12 13 14 16 18 20 21 21 19 18 17 16 15 14 14 13 13 12 12 11 10 9 9 9 10 10 11 11 12 15 19 22 19 16 nan
nan 33 34 33 31 30 29 28 27 24 21 19 20 22 21 17 13 11 9 8 8 9 9 10 10 10 9 11 12 14 15 14 16 19 18 14 11 11 11 12 11 11 12 13 14 15 15 16 16 16 15 15 14 14 14 15 17 18 18 19 20 19 16 15 14 14 13 13 12 11 9 9 9 9 10 11 11 11 11 13 16 19 18 14 12 nan
nan 24 24 25 26 26 26 23 22 21 22 23 25 24 21 15 11 10 9 8 8 9 9 10 10 10 9 10 11 12 12 10 9 11 13 13 10 8 8 8 8 7 9 9 9 9 11 13 14 13 13 13 14 13 12 12 12 13 13 15 16 16 15 14 14 14 15 13 12 11 9 9 9 10 10 11 11 11 11 13 15 16 14 11 10 nan
nan 16 14 16 17 18 17 16 15 16 18 21 21 20 16 12 10 9 9 9 9 9 9 9 9 9 9 7 7 7 7 5 3 3 7 11 10 8 7 7 7 8 8 8 7 7 8 9 9 10 9 9 11 12 12 11 11 11 11 11 12 12 13 15 15 16 16 15 14 13 11 11 10 10 10 10 10 10 10 12 13 14 12 11 10 nan
nan 11 12 12 12 11 10 10 10 10 12 13 14 13 13 12 11 10 9 10 10 9 8 8 9 10 10 9 9 8 7 6 3 2 7 12 11 9 8 8 8 9 9 11 10 9 8 6 6 8 9 10 10 11 12 12 11 10 11 10 10 11 13 14 15 15 15 15 16 15 14 13 13 11 11 10 10 9 9 11 11 11 10 10 10 nan
nan 10 11 12 10 8 7 7 8 9 10 10 10 11 11 11 12 11 10 10 10 9 8 8 8 9 10 11 11 10 8 6 4 7 12 15 12 10 9 9 9 9 10 12 12 13 12 8 7 7 10 11 11 11 12 13 12 11 11 10 10 10 11 12 12 13 12 13 14 14 15 15 14 13 12 11 10 9 8 9 9 9 9 9 8 nan
nan 11 11 11 9 8 9 10 10 11 11 11 12 11 11 10 11 11 11 10 9 8 8 8 8 8 9 9 10 9 8 5 4 7 11 13 11 9 10 10 10 9 10 10 11 13 13 11 8 6 8 10 11 11 12 13 13 12 11 11 10 9 10 10 10 11 11 11 11 11 12 12 13 12 12 10 8 7 6 7 8 9 10 9 8 nan
nan 11 12 11 11 11 11 12 13 14 13 13 12 12 11 10 10 10 10 10 9 8 8 8 8 8 8 8 7 7 6 5 4 5 7 9 9 9 10 11 10 10 11 11 11 10 9 9 9 8 9 10 10 11 12 13 13 11 10 10 10 9 9 9 9 10 10 10 10 10 10 10 10 10 9 7 7 7 8 8 10 11 11 10 9 nan
nan 11 12 13 13 12 12 13 14 14 14 13 12 11 11 10 9 9 10 9 9 9 9 10 11 10 6 5 5 5 5 5 5 6 8 10 9 9 8 9 10 11 10 10 9 8 7 8 9 11 13 12 10 9 10 12 12 11 10 10 10 10 9 10 10 10 10 10 9 9 9 9 9 9 9 9 11 12 13 14 14 13 12 12 11 nan
nan 12 12 12 12 13 13 13 13 13 13 12 12 11 11 10 9 8 9 9 9 8 8 10 11 12 10 7 5 3 3 4 6 8 10 10 9 8 6 6 8 9 9 8 8 7 8 9 10 12 14 13 11 9 10 11 11 11 12 11 10 10 10 10 10 10 10 10 10 9 9 9 10 10 10 12 14 14 15 16 14 13 13 15 14 nan
nan 11 11 11 12 12 12 11 11 12 12 12 11 11 11 11 11 10 9 10 10 9 9 8 9 11 13 12 9 7 6 9 10 11 13 11 10 8 7 8 8 9 10 10 10 10 10 10 10 10 9 10 12 13 13 12 11 11 11 11 11 11 11 11 11 10 10 10 10 10 10 10 10 10 10 11 11 11 12 12 11 11 13 15 15 nan
nan 11 11 12 12 11 10 10 10 11 11 12 12 12 12 12 13 13 11 11 11 12 13 12 11 11 12 12 12 13 12 13 12 12 13 12 9 8 9 10 10 11 11 12 11 11 10 9 8 8 7 8 9 10 11 12 11 11 8 7 10 13 14 12 11 11 11 11 11 11 11 10 10 10 10 10 10 10 10 10 9 9 11 12 12 nan
nan 10 11 12 13 12 11 10 10 10 11 12 13 13 12 12 11 12 12 12 13 14 15 15 12 11 11 12 13 15 15 13 12 11 10 9 8 8 9 10 11 11 11 11 11 11 10 9 9 10 10 9 9 10 11 11 11 10 6 5 7 11 13 12 12 12 12 12 12 11 10 10 10 11 10 10 10 10 9 8 8 8 10 10 10 nan
nan 11 11 12 12 12 11 11 11 12 13 13 13 12 11 10 10 9 10 11 12 12 11 10 10 10 11 13 15 16 16 14 13 11 9 11 11 10 9 9 9 10 10 11 12 12 11 10 10 10 10 11 11 11 11 13 13 12 9 7 7 9 11 13 12 13 13 13 13 13 12 11 11 10 10 10 10 10 10 9 8 7 9 10 11 nan
nan 11 10 10 11 11 11 13 14 15 14 12 11 10 10 9 8 8 8 9 10 9 9 9 9 10 11 12 13 14 14 12 10 10 12 13 13 12 11 9 9 8 9 11 12 14 13 12 11 11 10 10 10 10 10 13 14 15 14 11 9 7 9 12 11 11 13 13 12 12 11 11 10 10 9 10 10 10 9 10 10 11 11 11 11 nan
nan 10 10 12 14 15 15 15 14 13 11 10 9 9 10 9 8 7 8 9 10 10 10 11 12 12 12 11 10 10 10 11 12 15 16 14 12 11 11 12 11 10 10 10 11 13 15 15 13 12 11 11 10 10 11 11 13 14 15 14 11 7 5 7 8 9 11 10 10 10 11 10 9 9 9 9 8 8 9 10 12 12 12 12 11 nan
nan 11 12 14 15 15 14 12 11 10 10 9 9 10 10 10 10 10 9 9 9 10 11 12 13 13 11 10 10 10 10 11 14 16 16 15 14 15 15 14 13 13 13 12 11 10 12 13 13 12 12 12 11 10 10 10 11 13 13 12 11 9 7 6 8 9 8 7 8 9 10 10 9 7 7 7 8 9 10 11 11 11 11 12 11 nan
nan 12 13 15 15 14 12 11 11 10 10 9 10 11 11 11 11 10 9 8 10 11 12 12 11 9 7 8 9 10 10 10 11 12 13 15 17 18 17 15 13 12 12 12 11 10 9 9 9 10 11 12 12 12 11 11 11 11 11 11 10 10 10 10 11 10 8 8 9 10 12 10 8 6 6 8 10 12 12 12 11 10 10 11 11 nan
nan 13 16 16 15 12 11 10 10 10 10 10 11 11 11 11 9 9 10 10 11 13 13 11 8 6 6 8 9 9 8 8 9 9 9 10 11 13 15 15 14 13 11 10 11 11 11 10 9 8 9 11 12 13 13 12 11 10 10 11 11 10 9 11 12 12 12 11 11 11 11 8 7 6 8 10 12 13 13 12 10 10 10 10 10 nan
nan 15 16 14 12 10 10 10 10 10 10 11 11 12 12 10 8 7 10 12 13 13 11 8 7 7 8 10 10 9 9 9 9 9 9 9 10 11 13 14 15 15 14 14 14 14 15 13 11 9 8 8 9 10 11 12 12 11 11 11 11 10 10 11 12 12 12 12 12 11 8 6 6 8 10 11 11 11 10 10 11 11 11 11 10 nan
nan 14 13 11 10 10 10 9 9 9 10 10 11 12 12 12 11 10 11 13 13 12 9 7 7 8 9 10 10 10 10 11 11 10 10 10 11 11 10 11 13 14 16 18 19 19 18 18 17 13 9 7 6 6 9 11 12 12 12 12 11 11 12 11 11 11 12 13 13 12 8 7 9 10 11 11 10 9 9 10 11 13 13 12 11 nan
nan 11 9 9 9 9 9 9 9 9 9 10 11 12 13 14 14 14 14 14 13 10 8 7 7 8 9 10 10 11 12 12 11 10 10 11 11 10 10 10 11 13 16 18 19 18 18 19 21 22 17 10 5 4 7 10 11 12 13 12 12 11 11 11 11 11 11 11 12 12 10 9 10 11 10 10 9 10 11 12 12 13 12 11 10 nan
nan nan nan nan nan nan nan nan nan nan nan nan nan nan nan nan nan nan nan nan nan nan nan nan nan nan nan nan nan nan nan nan nan nan nan nan nan nan nan nan nan nan nan nan nan nan nan nan nan nan nan nan nan nan nan nan nan nan nan nan nan nan nan nan nan nan nan nan nan nan nan nan nan nan nan nan nan nan nan nan nan nan nan nan nan nan
CAPE
1 1 1 1 1 0 0 nan nan nan nan nan nan nan nan nan nan nan nan nan nan nan nan nan nan nan nan nan nan nan 1 4 8 8 13 19 29 29 38 43 43 44 51 54 54 61 61 68 68 76 83 93 100 100 117 133 133 140 146 150 150 156 157 163 163 173 177 186 202 202 212 203 204 204 211 210 219 219 227 269 269 296 287 301 301 318
2 2 2 2 2 1 1 nan nan nan nan nan nan nan nan nan nan nan nan nan nan nan nan nan nan nan nan nan 0 0 1 4 7 7 11 17 29 29 39 49 49 50 58 61 61 65 63 65 65 73 76 86 90 90 103 110 110 127 128 134 134 140 141 153 153 171 187 207 225 225 245 247 237 237 239 239 229 229 218 207 207 223 246 258 258 277
1 2 2 4 4 2 1 nan nan nan nan nan nan nan nan nan nan nan nan nan nan nan nan nan nan nan nan nan 1 1 2 4 7 7 11 16 30 30 40 51 51 56 64 70 70 66 60 60 60 67 71 77 80 80 90 96 96 102 107 116 116 117 130 137 137 149 173 199 219 219 248 258 268 268 269 269 252 252 219 207 207 217 237 259 259 278
2 2 3 3 3 4 2 0 nan nan nan nan nan nan nan nan nan nan nan nan nan nan nan nan nan nan nan nan 0 0 3 5 9 9 13 18 30 30 46 55 55 65 65 67 67 71 67 67 67 65 68 73 79 79 84 83 83 88 88 89 89 97 105 118 118 127 141 160 186 186 200 221 237 237 247 258 244 244 241 246 246 262 277 285 285 280
4 3 4 3 3 4 3 1 nan nan nan nan nan nan nan nan nan nan nan nan nan nan nan nan nan nan nan nan 0 0 3 8 12 12 16 22 33 33 46 55 55 58 62 65 65 67 63 66 66 69 73 76 75 75 74 77 77 77 79 74 74 81 78 86 86 101 105 114 121 121 140 147 167 167 181 189 211 211 226 239 239 273 286 294 294 287
7 5 4 5 5 3 2 1 0 0 0 0 nan nan nan nan nan nan nan nan nan nan nan nan nan nan nan nan 1 1 6 11 16 16 21 26 30 30 38 43 43 51 56 61 61 64 68 73 73 72 83 75 77 77 78 81 81 81 72 66 66 73 72 86 86 90 95 98 101 101 109 109 128 128 123 142 149 149 162 189 189 223 244 269 269 261
7 6 7 5 5 3 2 1 1 1 nan nan nan nan 0 1 1 1 1 0 0 nan nan nan nan nan nan nan 3 3 7 10 14 14 16 17 25 25 25 27 27 33 39 45 45 50 66 73 73 79 90 89 90 90 89 85 85 90 79 79 79 77 80 89 89 99 103 100 103 103 104 106 114 114 116 124 122 122 123 147 147 179 214 227 227 245
8 9 8 4 4 3 2 2 2 2 2 1 0 0 0 0 1 1 5 8 8 6 2 0 0 nan nan nan nan nan 0 nan nan nan 1 2 9 9 12 16 16 28 34 45 45 53 67 75 75 88 93 89 95 95 97 95 95 88 83 78 78 72 76 81 81 90 92 89 94 94 99 103 114 114 117 127 136 136 140 158 158 175 208 221 221 243
10 6 3 6 6 3 2 2 6 6 5 3 3 3 1 0 1 1 2 1 1 3 3 1 1 nan nan nan nan nan 1 3 0 0 1 0 0 0 7 19 19 25 30 33 33 45 54 62 62 74 73 82 91 91 89 77 77 69 63 58 58 54 52 62 62 64 66 69 70 70 74 84 89 89 99 109 113 113 129 133 133 144 176 200 200 240
10 7 5 3 3 4 3 4 3 3 12 7 7 7 4 2 2 2 3 2 2 2 3 4 4 0 nan nan nan nan 1 4 14 14 18 8 17 17 9 3 3 1 9 19 19 27 33 35 35 44 47 51 56 56 56 49 49 36 30 32 32 36 40 47 47 51 53 51 53 53 56 56 60 60 69 79 84 84 89 93 93 102 123 154 154 194
8 7 6 7 7 7 5 8 11 11 16 16 12 12 8 4 4 4 5 5 5 5 5 6 6 3 0 nan nan nan 1 1 1 1 7 8 7 7 4 1 1 0 1 2 2 6 8 10 10 17 18 19 20 20 14 7 7 5 9 13 13 19 26 33 33 40 42 41 42 42 42 41 45 45 46 56 61 61 67 67 67 77 95 108 108 133
6 5 3 13 13 9 9 12 16 16 20 19 12 12 9 5 7 7 5 7 7 10 7 6 6 4 2 0 0 0 1 1 1 1 1 1 1 1 nan nan nan nan nan nan nan 0 1 2 2 3 2 2 5 5 3 3 3 3 3 6 6 8 16 21 21 24 28 31 35 35 36 37 38 38 36 41 41 41 45 55 55 59 68 80 80 103
2 4 4 4 4 9 12 22 28 28 19 17 10 10 8 6 9 9 6 14 14 19 11 8 8 4 2 2 2 2 2 2 2 2 2 1 nan nan nan nan nan nan nan nan nan nan nan 2 2 2 2 1 1 1 3 2 2 2 2 3 3 3 4 6 6 11 16 24 29 29 32 36 37 37 36 38 37 37 35 44 44 48 51 64 64 76
2 6 5 12 12 18 13 21 14 14 10 11 6 6 8 15 23 23 31 29 29 31 18 15 15 6 2 3 8 8 5 3 3 3 2 0 nan nan nan nan nan nan nan nan nan nan nan 0 0 nan 0 0 0 0 0 0 0 1 1 1 1 1 2 2 2 5 11 19 26 26 32 34 37 37 36 37 40 40 36 36 36 43 47 55 55 67
8 12 10 12 12 9 7 8 5 5 6 5 5 5 12 30 53 53 53 45 45 35 13 14 14 10 6 5 13 13 9 6 3 3 0 nan 0 0 0 nan nan nan nan nan nan nan nan nan nan nan nan nan nan nan nan nan nan 0 1 1 1 2 2 3 3 6 12 18 26 26 30 37 40 40 42 41 42 42 43 45 45 46 49 53 53 64
11 10 7 5 5 6 6 6 5 5 4 6 13 13 27 60 76 76 34 12 12 11 12 19 19 17 8 6 16 16 8 5 2 2 nan nan nan nan 1 1 1 0 nan nan nan nan nan nan nan nan nan nan nan nan nan 1 1 2 3 4 4 6 6 7 7 10 14 20 27 27 32 38 42 42 47 49 50 50 52 52 52 57 58 64 64 71
9 7 8 6 6 9 11 7 8 8 11 14 36 36 72 72 38 38 5 4 4 7 14 20 20 16 8 2 8 8 13 4 1 1 nan nan nan nan 1 3 3 2 0 nan nan nan nan nan nan nan nan nan nan nan 1 3 3 5 8 11 11 14 15 16 16 19 22 26 32 32 38 39 43 43 47 52 58 58 61 64 64 70 72 78 78 83
11 10 7 10 10 8 11 12 17 17 25 52 68 68 62 41 11 11 4 6 6 13 16 21 21 18 11 4 2 2 13 4 4 4 1 nan 0 0 6 8 8 7 3 nan nan nan nan nan nan nan nan 0 2 2 5 9 9 12 17 22 22 25 27 26 26 27 31 35 36 36 42 43 43 43 43 48 55 55 62 71 71 77 79 90 90 97
14 12 7 8 8 6 9 13 24 24 44 72 71 71 49 17 6 6 6 13 13 18 17 17 17 17 15 7 2 2 9 11 18 18 12 4 3 3 8 11 11 10 4 nan nan nan nan nan nan 0 1 2 4 4 10 16 16 22 25 30 30 31 33 32 32 34 36 41 42 42 42 41 37 37 38 42 48 48 58 62 62 70 81 94 94 101
23 20 24 22 22 17 29 51 55 55 60 70 67 67 46 23 8 8 8 11 11 9 14 19 19 15 14 9 8 8 12 57 50 50 35 16 8 8 6 10 10 9 2 nan nan nan nan nan nan 0 2 3 9 9 16 22 22 28 33 36 36 34 34 34 34 35 40 43 42 42 37 35 32 32 36 38 43 43 45 51 51 57 68 81 81 93
35 38 47 46 46 37 35 50 54 54 60 61 59 59 46 22 11 11 14 10 10 10 15 11 11 23 27 32 20 20 42 79 50 50 40 19 5 5 3 9 9 8 1 nan nan nan nan 0 0 0 2 8 15 15 22 28 28 34 37 36 36 34 34 36 36 38 42 41 39 39 36 31 31 31 32 33 35 35 40 45 45 51 57 68 68 84
30 28 44 52 52 34 29 21 38 38 40 36 23 23 31 14 12 12 16 13 13 14 23 23 23 33 37 45 63 63 69 85 50 50 37 24 9 9 3 5 5 2 0 nan nan nan 0 1 1 1 5 11 19 19 26 30 30 37 39 36 36 35 36 36 36 38 39 37 37 37 33 30 30 30 31 31 33 33 34 39 39 44 52 62 62 73
8 11 9 6 6 7 9 7 7 7 13 14 15 15 12 8 15 15 22 33 33 40 41 41 41 28 19 51 79 79 68 56 73 73 49 18 4 4 0 1 1 1 0 nan nan 0 3 4 4 4 6 13 16 16 23 26 26 34 38 40 40 37 35 34 34 36 38 36 31 31 31 29 29 29 26 28 30 30 34 35 35 39 44 51 51 60
4 3 6 6 6 2 3 4 6 6 5 4 4 4 6 2 2 2 15 38 38 31 18 13 13 14 54 102 57 57 24 37 52 52 31 15 3 3 nan 1 1 2 1 0 0 2 5 8 8 7 5 5 6 6 10 19 19 25 31 39 39 36 36 34 34 36 38 32 28 28 27 27 25 25 25 26 30 30 32 32 32 35 39 42 42 52
4 1 0 3 3 6 1 3 6 6 6 6 6 6 4 12 45 45 65 25 25 11 12 14 14 19 27 29 2 2 0 4 14 14 15 7 3 3 2 4 4 7 5 3 3 8 11 10 10 9 5 0 nan nan 1 7 7 16 23 33 33 37 36 32 32 33 31 29 26 26 23 23 24 24 24 26 29 29 28 28 28 30 35 41 41 44
53 47 42 42 42 93 112 125 121 121 93 24 22 22 25 49 40 40 3 3 3 5 2 5 5 6 5 4 nan nan nan nan 3 3 13 13 16 16 9 8 8 10 8 7 7 12 13 12 12 8 2 nan nan nan nan 2 2 8 18 25 25 31 30 28 28 27 26 23 22 22 22 20 23 23 25 25 26 26 23 23 23 24 26 32 32 37
120 144 175 196 196 216 224 232 238 238 247 196 89 89 25 27 2 2 0 3 3 2 0 0 0 1 4 2 nan nan nan 3 25 25 37 34 23 23 6 2 2 5 7 6 6 7 10 10 10 9 6 nan nan nan nan 1 1 3 9 18 18 23 21 23 23 22 21 21 21 21 19 20 20 20 22 21 22 22 20 18 18 19 22 24 24 34
99 137 159 194 194 201 224 249 268 268 268 282 306 306 172 54 24 24 11 4 4 0 2 2 2 4 6 4 1 1 0 1 12 12 25 24 8 8 3 2 2 6 7 5 5 6 17 15 15 13 10 5 nan nan nan nan nan 3 6 8 8 9 14 16 16 19 19 17 17 17 18 18 18 18 18 18 17 17 16 15 15 15 19 20 20 28
80 114 141 162 162 178 204 213 217 217 223 248 242 242 152 20 1 1 6 6 6 5 6 7 7 7 5 2 1 1 1 0 1 1 6 11 7 7 4 3 3 7 12 15 15 22 28 25 25 27 23 19 9 9 3 1 1 0 4 3 3 6 6 7 7 13 15 13 15 15 15 14 14 14 14 14 13 13 13 12 12 15 14 20 20 26
25 58 85 113 113 136 149 121 141 141 169 185 180 180 100 1 0 0 2 5 5 8 8 8 8 7 6 5 3 3 3 0 3 3 6 6 9 9 12 18 18 22 28 29 29 53 39 32 32 33 30 30 27 27 10 0 0 nan nan nan nan nan 1 2 2 4 9 9 10 10 11 11 10 10 11 9 11 11 11 11 11 16 17 20 20 24
6 4 1 15 15 36 32 9 32 32 85 113 113 113 62 4 1 1 0 4 4 9 7 8 8 8 10 8 5 5 2 4 26 26 15 18 26 26 32 26 26 40 41 20 20 7 8 19 19 20 7 3 6 6 1 nan nan nan nan nan nan nan nan nan nan 0 2 4 6 6 7 9 8 8 8 9 10 10 12 14 14 16 16 19 19 21
5 27 45 54 54 19 5 3 1 1 0 nan nan nan nan nan 0 0 0 2 2 8 13 13 13 13 13 13 9 9 7 17 52 52 41 19 17 17 19 15 15 11 8 17 17 14 6 7 7 15 12 2 nan nan nan nan nan nan nan nan nan nan nan nan nan nan nan 2 2 2 2 2 3 3 5 7 8 8 8 11 11 12 15 18 18 18
37 77 55 26 26 12 6 8 1 1 nan nan nan nan nan nan nan nan nan 0 0 7 16 13 13 11 10 11 10 10 14 35 44 44 42 31 16 16 17 17 17 14 12 9 9 12 10 10 10 14 21 17 6 6 nan nan nan nan nan nan nan nan nan nan nan nan 0 2 4 4 2 0 0 0 1 4 5 5 7 8 8 11 15 20 20 24
19 18 13 13 13 11 9 7 4 4 nan nan nan nan nan nan nan nan nan 1 1 9 20 15 15 15 14 13 14 14 23 29 30 30 40 30 19 19 23 16 16 14 14 11 11 13 17 19 19 19 17 20 18 18 0 nan nan nan nan nan nan nan nan nan nan nan nan nan nan nan nan nan nan nan nan 0 3 3 6 9 9 12 19 23 23 24
4 6 8 11 11 9 7 6 4 4 3 0 nan nan nan nan nan nan nan 7 7 18 23 23 23 24 23 13 17 17 18 26 45 45 52 31 17 17 13 10 10 10 11 14 14 16 20 25 25 23 16 19 25 25 7 nan nan nan nan nan nan nan nan nan nan nan nan nan nan nan nan nan nan nan nan 0 2 2 7 10 10 15 18 22 22 20
1 1 3 4 4 5 6 4 5 5 7 4 0 0 0 0 0 0 0 6 6 13 14 18 18 23 19 13 10 10 15 25 38 38 33 18 15 15 8 6 6 12 14 19 19 26 25 19 19 21 20 19 21 21 15 nan nan nan nan nan nan nan nan nan nan nan nan nan nan nan nan nan nan nan nan 0 3 3 7 12 12 13 15 15 15 14
0 0 0 3 3 4 5 4 5 5 6 4 1 1 0 0 nan nan nan 1 1 1 2 9 9 16 23 20 17 17 18 16 14 14 15 13 12 12 13 14 14 30 28 26 26 28 24 17 17 15 14 13 17 17 26 nan nan nan nan nan nan nan nan nan nan nan nan nan nan nan nan nan 0 0 1 3 5 5 8 8 8 8 7 7 7 8
nan 0 0 2 2 3 3 3 3 3 3 3 1 1 0 0 nan nan nan nan nan nan 0 7 7 17 12 31 12 12 14 5 0 0 4 16 18 18 19 19 19 24 30 30 30 24 19 13 13 13 13 14 23 23 33 6 6 nan nan nan nan nan nan nan nan nan nan nan nan nan nan 0 3 3 3 4 6 6 6 4 4 5 5 4 4 3
1 1 2 3 3 4 4 3 2 2 1 1 0 0 1 1 1 1 0 nan nan 1 9 23 23 33 4 nan 11 11 12 14 4 4 1 7 18 18 22 17 17 15 22 29 29 25 17 15 15 15 17 18 23 23 30 20 20 4 nan nan nan nan nan nan nan nan nan nan nan nan nan 0 0 0 1 1 3 3 5 6 6 4 5 5 5 3
2 4 5 4 4 3 4 4 1 1 0 0 1 1 2 2 2 2 0 0 0 6 19 26 26 19 5 5 8 8 10 8 13 13 3 0 8 8 12 9 9 10 15 15 15 12 9 12 12 13 20 22 25 25 26 22 22 8 2 nan nan nan nan nan nan nan nan nan nan nan nan nan nan nan nan 1 4 4 7 8 8 6 5 6 6 5
4 5 8 5 5 3 3 2 2 2 0 0 1 1 2 3 1 1 0 1 1 6 2 6 6 3 5 6 6 6 6 4 8 8 5 nan 2 2 3 4 4 5 7 5 5 7 9 8 8 12 16 19 23 23 26 26 26 21 20 17 17 12 nan nan nan nan nan nan nan nan nan nan 0 0 1 3 4 4 5 5 5 6 6 9 9 13
9 13 14 9 9 2 1 3 4 4 3 3 2 2 1 1 1 1 5 8 8 9 4 7 7 8 9 7 8 8 6 4 7 7 9 5 1 1 1 3 3 7 7 5 5 7 11 12 12 11 13 15 21 21 23 25 25 28 24 24 24 22 5 0 0 nan nan nan nan nan nan 0 1 1 3 4 2 2 1 2 2 4 8 14 14 17
13 20 23 21 21 16 16 11 7 7 4 3 2 2 1 1 6 6 15 13 13 13 12 11 11 10 11 9 7 7 6 3 4 4 5 6 3 3 1 1 1 3 7 4 4 6 10 13 13 10 12 12 14 14 18 22 22 23 29 27 27 25 22 12 12 nan nan nan nan nan nan 0 4 4 4 2 1 1 0 1 1 3 7 9 9 10
30 36 30 20 20 8 14 15 9 9 7 6 3 3 2 2 13 13 21 14 14 16 14 12 12 11 10 8 6 6 1 0 1 1 1 2 1 1 1 1 1 12 7 4 4 5 6 11 11 10 11 11 12 12 16 18 18 21 22 22 22 23 16 12 12 nan nan nan nan nan nan nan nan nan 1 2 1 1 0 0 0 2 3 5 5 5
11 10 9 7 7 5 13 17 17 17 14 7 6 6 9 13 21 21 19 14 14 12 11 13 13 12 14 8 4 4 0 nan nan nan nan 0 2 2 0 nan nan 4 6 5 5 4 4 7 7 12 14 10 13 13 17 17 17 22 16 9 9 17 18 12 12 6 nan nan nan nan nan nan nan nan 0 1 0 0 nan 0 0 0 1 2 2 0
9 8 6 4 4 6 22 26 22 22 16 14 15 15 17 21 19 19 18 11 11 9 12 15 15 12 10 6 2 2 0 nan nan nan nan nan 0 0 0 nan nan 2 7 7 7 8 5 7 7 10 9 9 15 15 15 18 18 19 22 13 13 10 7 5 5 3 3 3 5 5 nan nan nan nan 4 1 0 0 nan nan nan 0 0 nan nan nan
13 9 9 8 8 12 22 23 23 23 20 18 17 17 20 17 13 13 8 9 9 10 12 16 16 12 5 3 2 2 1 0 nan nan nan nan 0 0 1 2 2 6 7 10 10 14 8 7 7 6 5 10 16 16 15 20 20 20 15 12 12 6 7 5 5 1 1 4 7 7 nan nan 6 6 4 1 0 0 nan nan nan nan nan nan nan nan
29 27 30 23 23 16 15 16 17 17 16 12 15 15 15 13 6 6 6 12 12 12 15 9 9 3 2 2 2 2 3 2 0 0 0 0 1 1 2 4 4 7 12 17 17 17 10 7 7 5 4 6 14 14 16 19 19 17 12 11 11 7 7 7 7 1 nan 4 6 6 1 1 5 5 3 1 1 1 0 0 0 nan nan nan nan nan
26 26 8 7 7 7 9 12 12 12 12 9 10 10 10 13 20 20 11 14 14 15 12 2 2 1 2 2 2 2 4 4 3 3 2 2 3 3 5 7 7 5 2 3 3 3 5 6 6 7 5 5 7 7 9 15 15 12 10 11 11 10 9 9 9 4 0 4 10 10 3 9 8 8 4 1 0 0 0 0 0 nan nan nan nan nan
26 9 7 7 7 8 11 12 12 12 11 9 7 7 9 9 11 11 11 12 12 9 2 1 1 1 1 2 2 2 3 3 3 3 5 5 9 9 14 14 14 6 3 2 2 3 2 1 1 3 11 8 6 6 7 12 12 12 9 9 9 10 9 10 10 7 0 1 5 5 5 9 7 7 8 4 2 2 0 nan nan nan nan nan nan nan
17 6 6 7 7 11 14 13 13 13 10 9 8 8 9 8 9 9 10 10 10 3 1 0 0 1 2 2 3 3 4 5 6 6 7 9 22 22 25 13 13 5 5 5 5 9 6 3 3 0 1 16 12 12 9 10 10 15 10 9 9 8 10 9 9 8 4 3 1 1 0 3 1 1 3 4 1 1 0 nan nan nan nan nan nan nan